Lid_Strength_Index
2 2 2 2 2 2 2 2 2 2 2 1 1 -0 0 0 0 0 0 1 -0 -1 -2 -2 -1 -2 -2 -2 -2 -2 -1 -1 -1 -1 -2 -1 -1 -2 -1 -1 -1 -2 -2
3 2 2 2 2 2 1 1 1 1 1 1 1 0 0 0 0 0 0 -0 -0 -1 -1 -1 -2 -2 -2 -2 -2 -2 -1 -1 -1 -1 -1 -1 -1 -2 -1 -2 -2 -2 -2
3 3 2 2 1 1 1 1 1 1 1 1 2 1 0 0 0 0 0 0 -0 0 -1 -1 -1 -1 -1 -2 -2 -1 -1 -1 -1 -1 -1 -1 -1 -1 -1 -2 -2 -1 -1
3 2 2 2 1 1 1 1 1 1 1 1 1 1 1 1 0 0 0 -1 -1 -0 1 1 -0 -1 -1 -1 -1 -1 -0 -1 -1 -1 -1 -1 -1 -1 -0 -0 -1 -1 -1
2 2 2 2 2 2 1 2 2 2 1 1 2 1 1 1 1 -0 0 1 1 2 2 2 1 1 -0 -2 -1 -1 -1 -1 -1 -1 -1 -1 -1 -1 -1 -1 0 -0 -1
4 4 3 3 3 3 4 4 4 3 2 3 3 2 2 1 1 0 0 1 1 2 2 2 2 1 1 1 1 1 -0 0 1 -0 -0 -1 -1 -1 -1 -1 -1 -1 -1
5 6 5 5 5 6 7 7 6 5 4 4 4 4 3 1 3 1 2 2 2 2 3 2 3 2 3 2 4 3 2 1 0 0 0 -0 -1 -1 -1 -1 -1 -1 -1
6 7 7 7 7 6 7 7 7 7 6 6 6 6 6 4 3 1 2 2 3 3 4 4 3 3 5 5 6 5 4 4 2 1 1 0 0 -1 -1 -1 -0 -0 -0
7 7 8 8 8 8 8 9 8 8 9 8 7 7 8 8 7 2 3 5 7 6 7 9 4 5 6 6 7 7 5 4 4 3 2 2 1 -0 0 -1 -0 1 0
8 8 8 9 9 9 10 10 9 10 10 10 9 8 9 7 9 10 7 8 9 9 10 9 5 6 8 8 7 7 6 5 5 3 3 2 1 1 1 1 0 0 1
9 9 9 10 10 10 10 11 11 11 11 10 11 10 11 11 8 11 13 12 11 10 11 10 6 8 9 10 9 7 6 5 5 4 3 4 4 4 3 3 2 1 2
10 10 10 11 11 11 11 11 11 12 12 12 12 12 12 12 12 13 14 13 13 12 11 11 7 9 10 10 8 7 7 6 6 4 4 4 4 5 5 4 4 3 4
11 12 11 12 12 12 11 11 11 12 12 12 13 13 13 12 11 12 12 13 14 13 13 12 10 10 9 10 10 8 8 7 6 5 4 4 5 6 5 5 5 5 5
12 11 12 12 12 12 12 12 12 12 12 12 13 13 13 13 12 12 12 13 15 15 14 13 11 11 11 10 9 8 10 8 7 7 6 6 7 7 6 6 6 6 6
11 12 12 12 12 12 12 13 13 13 13 13 13 13 13 13 13 13 12 13 14 17 16 14 13 12 11 11 9 10 10 8 8 7 7 7 7 7 7 7 7 6 6
12 12 13 13 13 13 13 13 13 13 13 13 12 13 13 13 13 13 13 13 13 14 16 14 13 13 12 11 10 10 10 9 9 8 8 8 8 7 7 7 7 7 7
12 13 13 13 13 14 13 14 14 13 13 13 13 12 12 13 13 13 13 13 13 14 15 14 13 13 13 13 12 11 11 12 11 9 8 8 8 7 7 7 7 7 7
12 13 13 13 14 14 14 14 15 14 14 14 13 13 13 12 14 13 13 14 14 14 14 15 14 14 13 13 13 13 11 11 11 9 8 8 8 8 7 7 7 7 7
13 13 14 14 14 14 15 15 15 15 15 14 13 13 13 13 14 14 14 14 14 13 14 15 14 14 14 13 13 13 12 13 11 9 9 9 8 8 7 7 7 7 7
13 14 14 14 14 14 14 14 15 15 15 14 13 13 13 13 14 14 14 14 13 15 15 15 15 14 14 13 13 14 14 13 13 11 10 9 8 8 7 7 7 7 7
13 13 14 14 14 14 14 14 14 15 15 14 13 13 13 12 11 11 12 14 15 15 16 16 15 15 14 14 15 14 14 14 13 12 12 11 11 10 10 8 7 6 6
13 14 14 14 15 13 11 10 12 14 14 14 14 13 13 11 11 10 10 11 12 15 16 15 15 15 15 15 14 14 14 14 15 11 12 11 10 10 10 9 7 6 5
13 13 14 14 14 14 10 10 11 14 14 14 14 14 13 11 11 13 12 11 11 11 11 12 13 14 14 13 12 13 13 14 13 10 11 12 10 11 10 9 7 6 6
13 13 14 14 15 15 11 11 10 14 14 14 14 13 13 13 13 12 14 14 14 13 13 12 13 13 12 11 11 11 11 11 10 10 11 13 11 12 10 10 7 7 7
13 13 13 13 14 14 10 10 11 14 14 15 14 13 13 13 11 10 13 14 13 13 11 10 10 9 8 8 8 10 13 14 13 12 12 12 12 12 12 11 10 8 7
13 13 13 13 12 13 10 10 10 14 15 15 14 13 10 11 10 10 12 13 13 13 13 13 12 11 10 11 8 10 12 13 13 13 12 13 12 13 14 12 12 11 10